Regional Weather Roundup
Issued by NWS

Home | Current Version | Previous Version | Graphics & Text | Print | Product List | Glossary On
Versions: 1 2 3 4 5 6 7 8 9 10 11 12 13 14 15 16 17 18 19 20 21 22 23 24 25 26 27 28 29 30 31 32 33 34 35 36 37 38 39 40 41 42 43 44 45 46 47 48 49 50
000
ASUS43 KDMX 041201
RWRIA

WEATHER ROUNDUP FOR IOWA
NATIONAL WEATHER SERVICE DES MOINES IA
600 AM CST SUN DEC 04 2016

NOTE: "FAIR" INDICATES FEW OR NO CLOUDS BELOW 12,000 FEET WITH NO
SIGNIFICANT WEATHER AND/OR OBSTRUCTIONS TO VISIBILITY.

* - THESE STATIONS ARE NOT NWS STATIONS...THUS NOT UNDER NWS
QUALITY CONTROL.  THEY ALSO DO NOT REPORT WEATHER SUCH
AS PRECIPITATION OR FOG.

IAZ001>003-012>014-020>022-031>034-043>046-041300-
   NORTHWEST IOWA

CITY           SKY/WX    TMP DP  RH WIND       PRES   REMARKS
CARROLL *      CLOUDY    34  34 100 SW9       29.95F FOG     WCI  26
CHEROKEE *     CLOUDY    32  32 100 SW9       29.92F FOG     WCI  25
DENISON *      CLOUDY    32  32 100 W5        29.93F FOG     WCI  27
LE MARS *      CLOUDY    34  32  93 S8        29.93F WCI  27
ORANGE CITY *  CLOUDY    34  34 100 S7        29.90F FOG     WCI  28
SHELDON *      CLOUDY    32  32 100 S7        29.89F WCI  26
SIOUX CITY     CLOUDY    35  32  88 S6        29.94F WCI  30
6HR MIN TEMP:  35; 6HR MAX TEMP:  36;

SPENCER        CLOUDY    34  33  96 SW8       29.91F FOG     WCI  27
6HR MIN TEMP:  33; 6HR MAX TEMP:  34; 6HR PCP: TRACE;

STORM LAKE *   CLOUDY    32  32 100 SW8       29.92F FOG     WCI  25
$$

IAZ055>058-069>071-079>083-090>094-041300-
   SOUTHWEST IOWA

CITY           SKY/WX    TMP DP  RH WIND       PRES   REMARKS
ATLANTIC *     CLOUDY    34  34 100 SW8       29.97F WCI  27
AUDUBON *      CLOUDY    34  30  86 SW6       29.97S FOG     WCI  29
CLARINDA *       N/A     36  36 100 W8        30.02S WCI  29
COUNCIL BLFS * CLOUDY    34  34 100 SW6       29.97F FOG     WCI  29
CRESTON *      MIX PCPN  34  34 100 S10       30.00S WCI  26
HARLAN  *      CLOUDY    34  34 100 SW7       30.00S FOG     WCI  28
LAMONI         LGT SNOW  33  32  96 S8        30.00F FOG     WCI  26
6HR MIN TEMP:  33; 6HR MAX TEMP:  38; 6HR PCP:  0.22;

RED OAK *      CLOUDY    36  36 100 S6        30.00S WCI  31
SHENANDOAH *   CLOUDY    36  36 100 SW6       30.01S WCI  31
$$

IAZ047>049-059>061-072>074-084-041300-
   CENTRAL IOWA

CITY           SKY/WX    TMP DP  RH WIND       PRES   REMARKS
AMES           LGT SNOW  33  33 100 S9        29.99F FOG     WCI  25
6HR MIN TEMP:  33; 6HR MAX TEMP:  33; 6HR PCP:  0.13;

ANKENY *       CLOUDY    32  32 100 S7        30.01F FOG     WCI  26
BOONE *        LGT SNOW  32  32 100 S10       29.97S WCI  24
CHARITON *     LGT RAIN  34  32  93 S12       30.01F WCI  25
DES MOINES     LGT SNOW  34  33  96 S9        30.00F FOG     WCI  27
6HR MIN TEMP:  34; 6HR MAX TEMP:  37; 6HR PCP:  0.28;

GRINNELL*      LGT SNOW  32  32  99 SE9       30.02F WCI  24
KNOXVILLE *    MIX PCPN  36  34  93 S10       30.00F WCI  28
MARSHALLTOWN   LGT SNOW  33  33 100 SE13      29.99F FOG     WCI  24
6HR MIN TEMP:  33; 6HR MAX TEMP:  33; 6HR PCP:  0.02;

NEWTON *       CLOUDY    32  32 100 S10       30.01F FOG     WCI  24
PELLA *        LGT RAIN  35  34  96 S10       30.03F WCI  28
PERRY *        LGT SNOW  33  33 100 S7        29.99S WCI  27
$$

IAZ004>006-015-016-023>025-035-036-041300-
   NORTH CENTRAL IOWA

CITY           SKY/WX    TMP DP  RH WIND       PRES   REMARKS
ALGONA *       CLOUDY    34  34 100 S13       29.93F FOG     WCI  25
CLARION *      FOG       32  32 100 S14       29.95F VSB 3/4 WCI  22
ESTHERVILLE    FOG       32  32 100 S10       29.91F VSB 1   WCI  24
6HR MIN TEMP:  32; 6HR MAX TEMP:  32; 6HR PCP:  0.01;

FORT DODGE *   CLOUDY    34  30  86 S10       29.95F WCI  26
MASON CITY     LGT SNOW  32  31  96 S14       29.97F VSB 1   WCI  22
6HR MIN TEMP:  32; 6HR MAX TEMP:  32; 6HR PCP:  0.07;

WEBSTER CITY * LGT SNOW  34  34 100 S12       29.94F VSB 1   WCI  25
IOWA FALLS *   LGT SNOW  33  32  96 S10       29.99F WCI  25
$$

IAZ007>011-017>019-026>030-037>042-050>054-066-041300-
   NORTHEAST IOWA

CITY           SKY/WX    TMP DP  RH WIND       PRES   REMARKS
CEDAR RAPIDS   LGT SNOW  32  32 100 SE8       30.05F VSB 1   WCI  25
6HR MIN TEMP:  32; 6HR MAX TEMP:  34; 6HR PCP:  0.08;

CHARLES CITY * LGT SNOW  32  32 100 S16       29.99F VSB 1   WCI  21
CLINTON *      LGT SNOW  31  29  92 SE12      30.13F FOG     WCI  22
DECORAH *      LGT SNOW  32  30  93 SE13G18   30.01F WCI  22
DUBUQUE        LGT SNOW  30  29  96 SE10      30.10S VSB 3/4 WCI  21
6HR MIN TEMP:  30; 6HR MAX TEMP:  32; 6HR PCP:  0.11;

MONTICELLO *   LGT SNOW  32  30  93 SE12      30.08F VSB 1   WCI  23
OELWEIN *      FOG       32  32 100 SE17      30.02F VSB 1   WCI  21
WATERLOO       LGT SNOW  33  31  92 S15       30.01F FOG     WCI  23
6HR MIN TEMP:  32; 6HR MAX TEMP:  33; 6HR PCP:  0.22;

$$

IAZ064-065-067-068-078-041300-
   EAST CENTRAL IOWA

CITY           SKY/WX    TMP DP  RH WIND       PRES   REMARKS
DAVENPORT      LGT SNOW  32  30  92 SE10      30.11F FOG     WCI  24
6HR MIN TEMP:  32; 6HR MAX TEMP:  34; 6HR PCP: TRACE;

IOWA CITY      LGT SNOW  33  32  96 SE7       30.09F FOG     WCI  27
6HR MIN TEMP:  33; 6HR MAX TEMP:  35; 6HR PCP:  0.03;

MUSCATINE *    LGT SNOW  34  32  93 SE8       30.10F WCI  27
QUAD CITIES    LGT SNOW  33  30  88 SE7       30.11F FOG     WCI  27
6HR MIN TEMP:  33; 6HR MAX TEMP:  35; 6HR PCP:  0.03;

$$

IAZ062-063-075>077-085>089-095>099-041300-
   SOUTHEAST IOWA

CITY           SKY/WX    TMP DP  RH WIND       PRES   REMARKS
BURLINGTON     LGT SNOW  32  32 100 SE7       30.09F FOG     WCI  26
6HR MIN TEMP:  32; 6HR MAX TEMP:  35; 6HR PCP:  0.04;

FAIRFIELD *    CLOUDY    34  32  93 SE10      30.06F FOG     WCI  26
FORT MADISON * LGT SNOW  34  34 100 SE7       30.09F WCI  28
KEOKUK *       LGT SNOW  34  34 100 E6        30.07F WCI  29
OSKALOOSA *    LGT SNOW  33  33  98 S8        30.04F WCI  27
CENTERVILLE *  LGT SNOW  32  32 100 SE3       30.04F
OTTUMWA        LGT RAIN  35  33  92 S8        30.03F FOG     WCI  29
6HR MIN TEMP:  35; 6HR MAX TEMP:  37; 6HR PCP:  0.18;

WASHINGTON *   LGT SNOW  32  32 100 SE12      30.08F VSB 1   WCI  23
$$

ABBREVIATIONS USED IN REMARKS
   TC - TEMPERATURES IN CELSIUS
  WCI - WIND CHILL INDEX
   HX - HEAT INDEX
  VSB - VISIBILITY
$$




USA.gov is the U.S. government's official web portal to all federal, state and local government web resources and services.